Theta_e
307 307 306 305 306 306 305 304 303 302 302 301 301 299 298 298 297 296 295 295 294 294 294 295 293 292 291 291 293 293 292 291 287 287 290 291 290 291 293 293 296 295 294
304 304 304 304 304 303 302 301 302 301 301 301 301 300 300 298 296 296 296 296 295 295 295 295 295 297 292 292 291 292 292 292 290 287 288 289 290 291 292 291 294 297 294
303 302 302 301 300 299 299 299 300 300 299 300 299 297 297 298 298 297 298 298 297 296 296 295 295 296 293 292 293 293 292 295 292 291 291 290 290 290 290 291 292 292 296
302 302 301 300 299 298 298 298 298 298 298 298 298 298 298 298 298 298 298 297 298 298 298 297 297 296 295 293 293 292 292 291 290 290 289 289 289 291 290 288 290 290 289
302 301 301 301 302 302 301 300 300 299 299 300 299 298 298 298 299 298 297 295 295 295 298 299 300 302 307 303 296 293 291 290 289 288 288 288 289 290 290 289 286 287 288
303 302 303 302 302 302 302 301 300 300 300 300 299 299 299 300 302 303 298 294 294 293 292 294 295 301 302 306 308 309 301 294 291 289 287 287 288 289 289 287 286 284 285
303 303 303 301 300 299 300 300 298 298 297 296 296 297 297 296 301 301 303 295 293 292 292 293 295 300 302 300 302 304 304 307 304 293 290 290 291 293 289 288 287 287 288
303 303 303 302 300 299 297 296 297 296 295 294 295 295 295 297 301 300 302 297 294 293 293 294 294 295 297 298 298 297 297 297 297 301 295 296 293 292 289 290 289 289 289
303 303 305 304 302 302 299 299 297 296 295 295 296 295 295 295 299 299 299 297 297 296 296 295 295 296 299 300 298 295 291 290 296 299 299 299 298 298 298 291 286 284 286
304 304 304 306 303 302 301 300 298 297 297 297 297 297 299 297 299 299 299 298 296 296 296 297 301 299 299 298 294 291 288 288 289 290 289 290 292 290 295 291 288 284 285
306 306 305 304 304 302 300 298 297 297 297 296 297 297 298 298 298 299 298 297 297 297 296 296 296 298 297 295 294 290 288 289 290 288 286 287 287 287 287 287 287 286 284
304 305 304 303 303 303 299 298 298 297 296 296 295 296 297 298 300 299 299 298 299 295 295 295 295 297 296 295 293 293 294 294 287 286 285 285 285 286 287 287 287 286 287
303 300 301 301 299 299 297 297 296 296 296 296 296 295 296 296 296 299 297 297 298 294 294 296 296 295 294 293 294 294 294 288 286 283 284 284 285 286 286 285 285 285 285
297 296 297 298 298 299 299 297 297 296 295 295 295 294 294 293 293 292 294 293 295 293 295 290 291 291 292 291 290 288 287 286 285 285 284 285 284 283 283 283 281 283 281
296 296 297 297 298 297 298 301 299 298 298 297 296 295 294 292 294 294 293 291 289 288 286 282 283 282 283 283 283 285 286 286 285 285 284 283 283 282 282 282 281 281 280
295 296 296 296 297 297 297 298 296 295 294 293 295 296 296 295 294 293 293 293 291 290 283 281 281 280 281 282 282 284 285 287 286 285 283 282 282 282 281 281 281 280 280
296 296 297 297 300 297 296 296 295 297 293 294 293 293 294 295 293 293 293 291 290 288 282 281 281 281 282 282 283 284 285 286 285 284 283 283 282 282 281 281 280 280 281
297 297 297 297 298 297 296 297 296 295 295 297 294 293 292 293 292 292 291 289 286 286 283 284 284 284 284 284 284 284 285 285 284 284 282 282 282 281 281 280 280 280 281
297 297 300 299 297 297 296 296 296 296 297 298 294 292 291 291 291 290 290 290 289 287 287 286 286 286 286 286 286 286 285 285 284 283 282 282 281 280 280 279 280 281 281
300 300 298 300 302 299 297 296 295 294 294 295 295 296 292 289 290 292 291 291 290 289 289 287 288 287 288 288 288 289 287 285 283 282 282 281 281 280 279 279 280 280 281
304 304 296 297 298 298 298 295 295 291 291 292 293 295 290 293 294 294 294 294 293 292 292 290 290 289 288 289 288 288 286 286 283 283 282 281 281 280 280 280 281 281 281
302 301 298 298 298 296 294 293 292 291 291 291 291 292 287 289 293 293 294 295 295 293 293 292 291 291 291 290 290 289 288 287 286 283 281 281 280 280 280 280 280 280 281
299 298 297 295 295 292 293 293 293 292 292 291 291 291 289 288 288 290 291 292 292 292 291 292 292 292 293 292 292 290 288 288 288 284 281 281 280 280 280 280 280 280 281
300 301 300 298 295 294 293 292 290 289 292 291 290 290 289 289 289 290 292 292 293 295 296 296 296 295 294 293 293 293 293 292 289 285 282 280 280 279 279 280 280 281 281
299 298 297 296 295 292 290 291 291 290 289 289 291 291 289 289 290 292 294 294 295 296 296 296 295 295 295 294 294 294 290 285 285 282 281 280 280 279 279 279 280 281 281
298 298 297 297 295 292 290 288 289 289 290 290 289 289 291 292 292 292 292 292 293 294 293 293 294 295 294 294 294 291 287 284 282 280 280 279 279 278 279 279 280 281 281
Wind_Speed
10 10 12 7 8 9 9 8 7 8 7 6 6 5 7 7 5 7 6 6 8 7 5 7 7 5 5 4 4 4 4 4 4 2 2 2 2 3 4 4 5 5 4
9 11 9 8 8 10 7 6 8 9 6 6 5 5 6 6 6 6 6 6 7 6 6 7 6 4 5 4 3 4 4 3 4 3 2 2 3 2 4 5 4 4 4
10 10 12 10 8 10 8 6 6 7 7 5 6 5 6 6 5 5 6 5 6 5 4 5 4 4 2 2 2 3 3 3 2 3 3 2 4 3 3 2 3 4 3
8 8 10 10 9 8 8 7 7 6 6 6 5 5 6 6 6 6 7 6 5 4 3 3 3 2 3 2 1 2 2 2 1 2 2 3 3 5 3 3 4 3 3
8 8 8 7 7 5 9 8 8 5 4 5 4 4 5 5 3 6 6 6 5 2 0 1 1 4 6 5 4 4 3 2 2 3 3 3 3 2 3 1 3 4 4
6 7 5 5 5 5 4 7 4 5 4 5 3 2 2 2 5 7 7 3 1 1 3 4 4 6 5 6 5 8 6 5 4 3 3 3 4 4 2 3 3 3 5
4 4 5 5 7 6 5 6 6 6 4 3 2 2 2 3 2 3 7 3 2 3 5 5 5 3 3 4 7 8 7 8 13 5 5 5 4 5 2 4 4 4 7
4 4 4 5 4 6 6 6 4 3 4 3 4 5 4 5 6 6 6 3 4 6 7 6 5 7 5 4 5 6 5 6 6 4 5 6 6 6 5 6 7 8 6
6 6 7 7 5 5 5 5 5 3 3 4 3 4 5 6 8 8 5 4 5 8 7 6 7 7 9 10 4 4 2 4 4 7 8 10 11 13 12 4 5 3 8
6 7 5 5 6 6 5 5 2 2 4 2 5 6 8 7 8 10 7 4 5 5 6 6 8 7 7 5 4 4 3 6 5 6 6 6 7 9 14 6 4 5 5
6 5 5 6 6 6 5 3 4 5 5 5 6 5 6 7 7 9 10 5 5 4 4 3 3 5 5 7 7 4 6 4 7 5 5 5 6 6 5 5 6 5 4
6 6 6 7 6 5 6 4 5 5 5 6 5 5 5 5 7 7 8 8 6 4 4 3 3 6 6 7 4 9 10 8 4 4 4 5 5 5 6 5 6 6 7
5 4 5 5 5 5 6 6 4 5 4 5 4 4 4 4 3 3 1 4 5 2 2 4 5 6 6 6 9 10 10 4 3 3 5 5 4 5 5 5 6 8 8
6 5 4 6 5 5 4 4 4 4 4 5 5 5 4 3 4 2 2 2 2 1 1 2 2 5 7 7 5 6 4 4 5 5 5 4 3 3 3 3 3 5 4
4 4 4 3 6 5 4 5 5 6 6 5 5 4 4 4 5 7 7 4 4 3 3 1 2 1 4 4 4 5 4 4 4 4 4 4 4 3 4 3 3 3 5
5 5 5 5 5 4 4 4 7 10 9 11 8 6 4 7 7 9 9 9 9 8 2 3 4 4 5 4 5 5 4 6 5 4 4 4 5 4 4 4 3 4 7
7 6 4 5 4 4 4 4 5 4 8 7 9 10 10 8 11 10 11 11 9 8 4 4 5 5 6 5 5 5 5 6 3 4 4 5 5 4 4 4 5 6 9
8 9 5 5 5 5 5 5 4 4 4 5 7 7 10 12 11 13 11 7 2 4 5 7 8 7 7 7 5 5 5 5 4 4 4 5 4 3 3 4 5 7 10
7 6 6 5 5 6 5 5 4 5 5 6 2 2 10 12 7 5 9 6 8 8 8 8 9 8 7 6 6 5 5 5 4 4 4 4 4 3 4 5 6 9 11
8 13 9 6 6 5 5 5 5 5 5 5 4 7 3 5 4 7 8 9 9 10 10 10 10 7 7 7 7 6 5 5 4 4 5 4 4 4 5 5 6 8 10
7 8 9 5 5 6 6 6 6 5 5 6 7 8 10 8 9 8 9 10 12 13 12 11 10 9 8 7 5 5 4 5 4 5 4 4 4 4 4 5 6 7 9
7 7 6 8 7 5 5 5 5 5 6 6 5 3 5 5 6 6 6 7 8 7 8 8 8 8 7 5 5 5 4 4 4 5 5 4 4 4 4 4 6 7 9
7 7 6 5 5 6 5 5 5 5 4 4 3 1 2 1 3 4 5 5 5 6 5 6 7 5 4 5 6 5 3 4 5 4 5 4 4 4 3 6 7 7 9
8 10 10 9 6 6 5 5 3 4 5 4 4 3 2 1 1 3 4 4 4 4 4 6 9 12 8 7 5 4 3 3 5 5 6 4 3 3 4 6 6 9 9
9 9 9 8 8 5 5 5 5 5 4 3 3 3 1 2 3 3 4 4 4 4 5 5 4 3 3 2 2 4 3 7 5 4 4 3 3 4 5 6 7 8 10
8 7 6 3 4 4 4 5 5 4 4 4 4 4 4 3 4 4 4 4 5 2 4 4 5 5 4 3 3 6 7 6 6 5 4 2 2 4 5 6 9 7 11
Wind_Direction
81 112 94 114 100 103 124 114 126 104 102 108 110 107 109 102 103 97 99 99 93 92 80 95 90 93 87 81 74 75 78 86 108 302 238 264 287 316 322 325 320 314 314
76 87 89 70 91 102 85 101 109 106 94 116 110 113 109 118 123 118 104 98 98 93 95 89 108 98 85 96 92 104 116 103 126 176 263 269 234 276 278 298 288 293 300
103 96 75 68 73 83 75 61 64 97 111 109 104 105 107 109 116 115 113 112 109 110 109 109 121 99 106 127 124 135 140 126 154 143 245 246 258 242 264 271 268 283 263
89 93 105 111 110 93 89 84 77 76 96 101 118 129 110 111 110 107 102 94 96 94 105 116 122 168 217 212 206 221 224 200 177 218 263 262 246 261 222 250 294 231 270
80 82 74 70 68 63 91 85 88 85 88 100 117 89 95 100 118 107 123 138 130 129 339 274 210 230 253 202 188 237 213 229 221 236 244 246 242 272 279 267 270 288 265
84 86 90 94 82 73 65 97 122 123 122 118 99 117 109 114 131 149 153 154 59 316 284 299 306 287 287 290 270 255 216 202 224 203 225 238 270 266 249 234 254 272 313
103 137 170 167 157 158 160 163 172 170 165 153 119 165 185 247 269 198 204 175 235 228 228 246 262 250 304 301 310 303 298 256 234 194 212 219 239 244 244 276 253 253 274
153 190 186 188 182 158 160 179 175 166 204 194 210 211 212 251 254 260 257 232 243 246 241 244 244 275 281 285 282 286 287 272 253 220 202 250 243 264 232 259 275 284 286
207 209 216 183 185 176 211 189 172 159 202 213 216 219 221 252 247 240 234 248 252 255 247 239 220 236 245 252 250 266 288 282 282 269 268 265 266 267 263 292 273 291 300
226 208 189 183 181 194 209 208 170 184 220 225 244 227 235 249 241 246 231 211 245 256 266 252 239 223 244 250 174 167 253 269 295 308 302 290 267 265 277 236 226 245 269
225 209 188 197 190 204 198 180 184 218 224 232 242 242 245 237 270 262 244 215 221 239 239 254 189 212 223 221 195 191 219 237 281 281 281 287 287 282 277 261 224 204 246
229 205 204 193 198 194 196 204 218 211 218 240 242 265 247 251 236 262 276 226 209 195 229 224 240 238 262 244 240 243 262 279 266 277 275 270 269 273 273 268 259 248 236
216 211 202 188 186 179 177 199 201 191 194 225 212 229 250 241 237 239 144 138 160 168 195 245 269 282 278 294 270 267 278 269 266 251 250 253 235 251 286 285 279 269 266
161 169 168 155 173 183 181 178 188 196 212 230 230 237 244 235 223 220 212 164 171 213 336 324 303 285 268 261 286 270 246 239 221 230 241 254 284 288 276 244 262 287 276
175 176 178 179 175 194 209 198 205 220 194 209 220 212 216 242 234 200 185 195 204 211 123 45 284 274 282 288 283 270 270 271 255 240 241 253 263 261 267 276 258 283 275
191 191 197 191 209 210 218 264 231 236 239 235 240 198 219 222 203 194 199 199 197 170 138 216 242 231 245 257 260 277 272 277 263 255 257 246 255 263 276 288 257 266 286
201 202 204 210 211 210 214 217 261 262 237 249 231 220 213 205 206 211 205 197 192 153 219 225 239 230 235 231 237 236 253 261 251 256 255 258 251 266 267 282 285 283 295
209 206 196 210 212 207 212 225 218 226 240 256 237 227 235 229 215 212 198 139 190 216 216 232 239 239 236 228 229 228 247 253 247 256 247 241 254 246 278 284 288 293 300
203 217 208 211 205 211 209 227 227 229 233 246 258 240 242 243 237 227 171 211 221 229 227 233 236 240 240 239 240 235 230 240 233 234 241 245 254 232 270 275 283 292 295
208 221 209 205 225 215 208 213 227 222 228 239 234 238 179 134 199 220 213 222 228 236 236 230 235 228 231 235 242 244 235 238 227 228 246 251 235 235 264 279 290 300 300
211 216 202 202 199 210 214 211 220 206 225 230 235 240 206 200 226 220 223 222 229 237 240 238 234 226 221 229 234 233 210 254 232 239 245 233 229 259 267 273 287 292 295
201 203 190 202 202 202 215 207 206 213 225 232 249 250 206 204 230 231 238 248 253 247 250 252 251 250 249 206 198 198 215 238 248 234 224 216 230 260 276 283 294 295 299
190 192 193 197 198 202 209 217 219 223 235 235 246 15 33 286 245 246 249 250 248 251 245 244 260 250 215 172 185 175 203 248 254 231 202 203 233 261 286 292 295 301 304
202 202 202 207 197 200 205 204 166 149 141 143 154 148 146 207 281 281 272 277 270 241 225 244 249 251 230 178 169 149 171 258 257 221 179 181 229 285 290 287 291 301 301
197 199 204 206 203 189 154 160 170 168 161 164 163 164 127 342 303 292 297 287 278 299 298 280 233 194 133 120 145 161 213 234 212 167 147 152 245 290 280 281 295 304 301
200 206 212 181 143 140 126 105 94 91 72 44 19 4 353 5 2 22 13 9 9 20 23 17 20 55 36 11 317 265 231 172 161 145 136 176 287 294 281 288 300 303 305